When you browse on this site, cookies collect data to enhance your experience and personalize the content and advertising you see.
Visit our Privacy Policy to learn more. By continuing to use the site, you agree to this use of cookies and data.
  • In Latvia
  • List of Countries
  • For 7 days
  • Water Temperature
  • Weather Map
  • Weather Widgets
  • user-avatar
    Login

    Hourly Weather Andreevka

    Today, 23 August, Friday

    Time Temperature Precipitation Wind Pressure Humidity
    00:00 +21°C° 0 mm 3 mps 759 mmHg 73%
    01:00 +20°C° 0 mm 3 mps 760 mmHg 76%
    02:00 +20°C° 0 mm 3 mps 760 mmHg 78%
    03:00 +20°C° 0 mm 3 mps 760 mmHg 81%
    04:00 +20°C° 0 mm 3 mps 760 mmHg 81%
    05:00 +20°C° 0 mm 3 mps 760 mmHg 80%
    06:00 +20°C° 0 mm 3 mps 759 mmHg 79%
    07:00 +22°C° 0 mm 3 mps 760 mmHg 72%
    08:00 +25°C° 0 mm 3 mps 760 mmHg 65%
    09:00 +27°C° 0 mm 4 mps 760 mmHg 58%
    10:00 +28°C° 0 mm 4 mps 760 mmHg 54%
    11:00 +29°C° 0 mm 3 mps 760 mmHg 50%
    12:00 +30°C° 0 mm 3 mps 760 mmHg 47%
    13:00 +30°C° 0 mm 4 mps 760 mmHg 46%
    14:00 +32°C° 0 mm 4 mps 760 mmHg 45%
    15:00 +32°C° 0 mm 4 mps 760 mmHg 44%
    16:00 +30°C° 0 mm 5 mps 760 mmHg 50%
    17:00 +28°C° 0 mm 5 mps 760 mmHg 55%
    18:00 +27°C° 0 mm 6 mps 760 mmHg 61%
    19:00 +26°C° 0 mm 6 mps 760 mmHg 63%
    20:00 +23°C° 0 mm 6 mps 760 mmHg 66%
    21:00 +22°C° 0 mm 7 mps 761 mmHg 68%
    22:00 +21°C° 0 mm 6 mps 761 mmHg 69%
    23:00 +21°C° 0 mm 6 mps 761 mmHg 69%

    Tomorrow, 24 August, Saturday

    Time Temperature Precipitation Wind Pressure Humidity
    00:00 +20°C° 0 mm 6 mps 761 mmHg 69%
    01:00 +20°C° 0 mm 6 mps 761 mmHg 70%
    02:00 +19°C° 0 mm 6 mps 761 mmHg 70%
    03:00 +19°C° 0 mm 6 mps 761 mmHg 71%
    04:00 +19°C° 0 mm 6 mps 761 mmHg 70%
    05:00 +19°C° 0 mm 6 mps 761 mmHg 69%
    06:00 +19°C° 0 mm 6 mps 761 mmHg 69%
    07:00 +20°C° 0 mm 6 mps 761 mmHg 66%
    08:00 +21°C° 0 mm 6 mps 761 mmHg 63%
    09:00 +22°C° 0 mm 6 mps 762 mmHg 60%
    10:00 +23°C° 0 mm 6 mps 761 mmHg 56%
    11:00 +25°C° 0 mm 5 mps 761 mmHg 53%
    12:00 +26°C° 0 mm 5 mps 761 mmHg 50%
    13:00 +27°C° 0 mm 5 mps 761 mmHg 47%
    14:00 +27°C° 0 mm 5 mps 761 mmHg 44%
    15:00 +28°C° 0 mm 5 mps 761 mmHg 42%
    16:00 +27°C° 0 mm 4 mps 760 mmHg 43%
    17:00 +26°C° 0 mm 4 mps 760 mmHg 45%
    18:00 +25°C° 0 mm 3 mps 760 mmHg 47%
    19:00 +22°C° 0 mm 3 mps 760 mmHg 50%
    20:00 +21°C° 0 mm 3 mps 760 mmHg 52%
    21:00 +19°C° 0 mm 3 mps 761 mmHg 55%
    22:00 +19°C° 0 mm 3 mps 760 mmHg 57%
    23:00 +18°C° 0 mm 3 mps 760 mmHg 58%

    Day after tomorrow, 25 August, Sunday

    Time Temperature Precipitation Wind Pressure Humidity
    00:00 +17°C° 0 mm 3 mps 760 mmHg 59%
    01:00 +17°C° 0 mm 2 mps 760 mmHg 61%
    02:00 +16°C° 0 mm 2 mps 760 mmHg 62%
    03:00 +16°C° 0 mm 1 mps 760 mmHg 63%
    04:00 +16°C° 0 mm 1 mps 760 mmHg 63%
    05:00 +16°C° 0 mm 1 mps 759 mmHg 63%
    06:00 +18°C° 0 mm 1 mps 759 mmHg 63%
    07:00 +20°C° 0 mm 1 mps 759 mmHg 57%
    08:00 +22°C° 0 mm 1 mps 759 mmHg 51%
    09:00 +24°C° 0 mm 2 mps 759 mmHg 45%
    10:00 +25°C° 0 mm 2 mps 759 mmHg 42%
    11:00 +26°C° 0 mm 3 mps 759 mmHg 38%
    12:00 +27°C° 0 mm 3 mps 759 mmHg 35%
    13:00 +27°C° 0 mm 4 mps 759 mmHg 36%
    14:00 +28°C° 0 mm 4 mps 759 mmHg 36%
    15:00 +28°C° 0 mm 4 mps 758 mmHg 37%
    16:00 +27°C° 0 mm 4 mps 759 mmHg 44%
    17:00 +25°C° 0 mm 4 mps 759 mmHg 52%
    18:00 +23°C° 0 mm 4 mps 759 mmHg 59%
    19:00 +22°C° 0 mm 4 mps 759 mmHg 60%
    20:00 +20°C° 0 mm 5 mps 759 mmHg 61%
    21:00 +19°C° 0 mm 5 mps 760 mmHg 62%
    22:00 +17°C° 0 mm 5 mps 760 mmHg 67%
    23:00 +17°C° 0 mm 4 mps 760 mmHg 72%

    26 August, Monday

    Time Temperature Precipitation Wind Pressure Humidity
    00:00 +15°C° 0 mm 4 mps 760 mmHg 77%
    01:00 +14°C° 0 mm 4 mps 760 mmHg 79%
    02:00 +14°C° 0 mm 4 mps 761 mmHg 81%
    03:00 +13°C° 0 mm 4 mps 761 mmHg 83%
    04:00 +13°C° 0 mm 4 mps 761 mmHg 82%
    05:00 +13°C° 0 mm 4 mps 761 mmHg 81%
    06:00 +13°C° 0 mm 4 mps 762 mmHg 80%
    07:00 +15°C° 0 mm 4 mps 762 mmHg 74%
    08:00 +16°C° 0 mm 5 mps 762 mmHg 68%
    09:00 +19°C° 0 mm 5 mps 762 mmHg 63%
    10:00 +20°C° 0 mm 5 mps 762 mmHg 57%
    11:00 +21°C° 0 mm 5 mps 762 mmHg 52%
    12:00 +22°C° 0 mm 5 mps 763 mmHg 46%
    13:00 +22°C° 0 mm 5 mps 762 mmHg 45%
    14:00 +23°C° 0 mm 5 mps 762 mmHg 43%
    15:00 +23°C° 0 mm 5 mps 762 mmHg 41%
    16:00 +22°C° 0 mm 4 mps 762 mmHg 44%
    17:00 +21°C° 0 mm 3 mps 762 mmHg 48%
    18:00 +20°C° 0 mm 2 mps 762 mmHg 51%
    19:00 +19°C° 0 mm 2 mps 762 mmHg 56%
    20:00 +17°C° 0 mm 2 mps 762 mmHg 61%
    21:00 +16°C° 0 mm 2 mps 762 mmHg 65%
    22:00 +15°C° 0 mm 2 mps 762 mmHg 67%
    23:00 +14°C° 0 mm 2 mps 763 mmHg 68%

    27 August, Tuesday

    Time Temperature Precipitation Wind Pressure Humidity
    00:00 +14°C° 0 mm 2 mps 763 mmHg 70%
    01:00 +13°C° 0 mm 1 mps 762 mmHg 73%
    02:00 +13°C° 0 mm 1 mps 762 mmHg 76%
    03:00 +12°C° 0 mm 1 mps 762 mmHg 79%
    04:00 +12°C° 0 mm 0 mps 762 mmHg 78%
    05:00 +12°C° 0 mm 0 mps 762 mmHg 77%
    06:00 +12°C° 0 mm 0 mps 762 mmHg 76%
    07:00 +15°C° 0 mm 1 mps 761 mmHg 67%
    08:00 +17°C° 0 mm 2 mps 761 mmHg 59%
    09:00 +20°C° 0 mm 3 mps 761 mmHg 51%
    10:00 +21°C° 0 mm 3 mps 760 mmHg 47%
    11:00 +22°C° 0 mm 3 mps 760 mmHg 42%
    12:00 +23°C° 0 mm 4 mps 759 mmHg 38%
    13:00 +25°C° 0 mm 4 mps 758 mmHg 37%
    14:00 +25°C° 0 mm 4 mps 758 mmHg 36%
    15:00 +25°C° 0 mm 5 mps 757 mmHg 35%
    16:00 +23°C° 0 mm 4 mps 756 mmHg 39%
    17:00 +22°C° 0 mm 4 mps 756 mmHg 44%
    18:00 +21°C° 0 mm 3 mps 755 mmHg 48%
    19:00 +20°C° 0 mm 3 mps 755 mmHg 51%
    20:00 +19°C° 0 mm 3 mps 755 mmHg 54%
    21:00 +18°C° 0 mm 3 mps 754 mmHg 57%
    22:00 +18°C° 0.1 mm 3 mps 754 mmHg 63%
    23:00 +17°C° 0.1 mm 2 mps 753 mmHg 68%

    28 August, Wednesday

    Time Temperature Precipitation Wind Pressure Humidity
    00:00 +17°C° 0.1 mm 2 mps 753 mmHg 74%
    01:00 +16°C° 0.1 mm 3 mps 752 mmHg 76%
    02:00 +16°C° 0.1 mm 3 mps 751 mmHg 77%
    03:00 +15°C° 0.1 mm 4 mps 751 mmHg 79%
    04:00 +14°C° 0.7 mm 4 mps 750 mmHg 82%
    05:00 +14°C° 0.7 mm 4 mps 750 mmHg 85%
    06:00 +13°C° 0.7 mm 5 mps 750 mmHg 89%
    07:00 +14°C° 0.1 mm 6 mps 749 mmHg 80%
    08:00 +13°C° 0.1 mm 8 mps 749 mmHg 72%
    09:00 +15°C° 0.1 mm 9 mps 749 mmHg 64%
    10:00 +15°C° 0 mm 9 mps 749 mmHg 59%
    11:00 +13°C° 0 mm 9 mps 749 mmHg 54%
    12:00 +13°C° 0 mm 9 mps 750 mmHg 48%
    13:00 +12°C° 0 mm 9 mps 750 mmHg 53%
    14:00 +11°C° 0 mm 10 mps 750 mmHg 58%
    15:00 +9°C° 0 mm 10 mps 751 mmHg 63%
    16:00 +8°C° 0 mm 9 mps 751 mmHg 61%
    17:00 +8°C° 0 mm 9 mps 751 mmHg 58%
    18:00 +8°C° 0 mm 9 mps 751 mmHg 56%
    19:00 +7°C° 0 mm 8 mps 751 mmHg 59%
    20:00 +6°C° 0 mm 7 mps 751 mmHg 63%
    21:00 +5°C° 0 mm 6 mps 751 mmHg 67%
    22:00 +7°C° 0 mm 6 mps 751 mmHg 69%
    23:00 +6°C° 0 mm 7 mps 750 mmHg 71%
    Show more